| time (UTC) | temp C | wind direction | speed KPH | gust KPH | rain 1hr cm | rain 24hr cm | rain mn cm | humidity % | barometer mb |
| 20260505195148 | 18 | 262 | 12.9 | 22.5 | 0.00 | 0.00 | 0.00 | 56 | |
| 20260505194740 | 18 | 279 | 14.5 | 25.7 | 0.00 | 0.00 | 0.00 | 56 | |
| 20260505194538 | 18 | 309 | 6.4 | 25.7 | 0.00 | 0.00 | 0.00 | 55 | |
| 20260505194336 | 18 | 270 | 14.5 | 25.7 | 0.00 | 0.00 | 0.00 | 54 | |
| 20260505194134 | 18 | 270 | 11.3 | 24.1 | 0.00 | 0.00 | 0.00 | 55 | |
| 20260505193933 | 18 | 271 | 14.5 | 24.1 | 0.00 | 0.00 | 0.00 | 54 | |
| 20260505193731 | 19 | 255 | 14.5 | 24.1 | 0.00 | 0.00 | 0.00 | 54 | |
| 20260505193529 | 19 | 271 | 12.9 | 24.1 | 0.00 | 0.00 | 0.00 | 55 | |
| 20260505193327 | 18 | 270 | 11.3 | 24.1 | 0.00 | 0.00 | 0.00 | 56 | |
| 20260505193125 | 18 | 260 | 14.5 | 20.9 | 0.00 | 0.00 | 0.00 | 58 | |
| 20260505192519 | 18 | 254 | 17.7 | 22.5 | 0.00 | 0.00 | 0.00 | 56 | |
| 20260505192317 | 18 | 267 | 14.5 | 17.7 | 0.00 | 0.00 | 0.00 | 55 | |
| 20260505192115 | 18 | 277 | 16.1 | 17.7 | 0.00 | 0.00 | 0.00 | 56 | |
| 20260505191913 | 18 | 274 | 12.9 | 17.7 | 0.00 | 0.00 | 0.00 | 56 | |
| 20260505191712 | 18 | 261 | 11.3 | 19.3 | 0.00 | 0.00 | 0.00 | 56 | |
| 20260505191308 | 18 | 243 | 12.9 | 17.7 | 0.00 | 0.00 | 0.00 | 57 | |
| 20260505191105 | 18 | 268 | 11.3 | 17.7 | 0.00 | 0.00 | 0.00 | 57 | |
| 20260505190903 | 17 | 296 | 9.7 | 17.7 | 0.00 | 0.00 | 0.00 | 56 | |
| 20260505190702 | 18 | 296 | 11.3 | 19.3 | 0.00 | 0.00 | 0.00 | 55 | |
| 20260505190458 | 18 | 267 | 12.9 | 19.3 | 0.00 | 0.00 | 0.00 | 54 | |
| 20260505190257 | 18 | 272 | 11.3 | 16.1 | 0.00 | 0.00 | 0.00 | 53 | |
| 20260505190056 | 18 | 264 | 17.7 | 16.1 | 0.00 | 0.00 | 0.00 | 54 | |
| 20260505185854 | 18 | 268 | 8.0 | 16.1 | 0.00 | 0.00 | 0.00 | 54 | |
| 20260505185652 | 18 | 277 | 11.3 | 20.9 | 0.00 | 0.00 | 0.00 | 55 | |
| 20260505185450 | 18 | 275 | 9.7 | 20.9 | 0.00 | 0.00 | 0.00 | 55 | |
| 20260505185248 | 18 | 268 | 9.7 | 20.9 | 0.00 | 0.00 | 0.00 | 55 | |
| 20260505185047 | 18 | 292 | 12.9 | 20.9 | 0.00 | 0.00 | 0.00 | 55 | |
| 20260505184642 | 18 | 282 | 12.9 | 16.1 | 0.00 | 0.00 | 0.00 | 53 | |
| 20260505184441 | 18 | 260 | 16.1 | 16.1 | 0.00 | 0.00 | 0.00 | 53 | |
| 20260505184239 | 18 | 261 | 12.9 | 20.9 | 0.00 | 0.00 | 0.00 | 55 | |
| 20260505184037 | 18 | 232 | 4.8 | 20.9 | 0.00 | 0.00 | 0.00 | 53 | |
| 20260505183835 | 18 | 316 | 3.2 | 20.9 | 0.00 | 0.00 | 0.00 | 51 | |
| 20260505183633 | 19 | 264 | 14.5 | 20.9 | 0.00 | 0.00 | 0.00 | 51 | |
| 20260505183432 | 18 | 264 | 12.9 | 20.9 | 0.00 | 0.00 | 0.00 | 53 | |
| 20260505183230 | 18 | 275 | 11.3 | 17.7 | 0.00 | 0.00 | 0.00 | 53 | |
| 20260505182826 | 18 | 279 | 3.2 | 17.7 | 0.00 | 0.00 | 0.00 | 52 | |
| 20260505182624 | 18 | 258 | 14.5 | 16.1 | 0.00 | 0.00 | 0.00 | 53 | |
| 20260505182422 | 18 | 261 | 11.3 | 16.1 | 0.00 | 0.00 | 0.00 | 56 | |
| 20260505182220 | 18 | 277 | 12.9 | 9.7 | 0.00 | 0.00 | 0.00 | 54 | |
| 20260505182018 | 18 | 296 | 11.3 | 9.7 | 0.00 | 0.00 | 0.00 | 55 | |
| 20260505181817 | 18 | 312 | 6.4 | 16.1 | 0.00 | 0.00 | 0.00 | 56 | |
| 20260505181413 | 18 | 278 | 0.0 | 16.1 | 0.00 | 0.00 | 0.00 | 56 | |
| 20260505181211 | 18 | 260 | 3.2 | 29.0 | 0.00 | 0.00 | 0.00 | 56 | |
| 20260505181009 | 17 | 275 | 6.4 | 29.0 | 0.00 | 0.00 | 0.00 | 57 | |
| 20260505180807 | 18 | 292 | 8.0 | 12.9 | 0.00 | 0.00 | 0.00 | 56 | |
| 20260505180603 | 18 | 288 | 4.8 | 12.9 | 0.00 | 0.00 | 0.00 | 56 | |
| 20260505180403 | 18 | 284 | 14.5 | 12.9 | 0.00 | 0.00 | 0.00 | 56 | |
| 20260505180201 | 18 | 320 | 4.8 | 9.7 | 0.00 | 0.00 | 0.00 | 55 | |
| 20260505175959 | 18 | 275 | 9.7 | 9.7 | 0.00 | 0.00 | 0.00 | 55 | |
| 20260505175757 | 18 | 191 | 1.6 | 16.1 | 0.00 | 0.00 | 0.00 | 56 | |
| 20260505175555 | 18 | 255 | 4.8 | 16.1 | 0.00 | 0.00 | 0.00 | 56 | |
| 20260505175354 | 18 | 229 | 3.2 | 16.1 | 0.00 | 0.00 | 0.00 | 56 | |
| 20260505174950 | 18 | 229 | 6.4 | 11.3 | 0.00 | 0.00 | 0.00 | 53 | |
| 20260505174748 | 18 | 165 | 4.8 | 11.3 | 0.00 | 0.00 | 0.00 | 53 | |
| 20260505174546 | 18 | 187 | 6.4 | 11.3 | 0.00 | 0.00 | 0.00 | 55 | |
| 20260505174142 | 18 | 164 | 4.8 | 12.9 | 0.00 | 0.00 | 0.00 | 59 | |
| 20260505173940 | 17 | 188 | 3.2 | 12.9 | 0.00 | 0.00 | 0.00 | 58 | |
| 20260505173738 | 17 | 213 | 3.2 | 11.3 | 0.00 | 0.00 | 0.00 | 58 | |
| 20260505173536 | 18 | 219 | 6.4 | 11.3 | 0.00 | 0.00 | 0.00 | 57 | |
| 20260505173133 | 18 | 70 | 0.0 | 12.9 | 0.00 | 0.00 | 0.00 | 60 | |
| 20260505172527 | 17 | 156 | 4.8 | 8.0 | 0.00 | 0.00 | 0.00 | 59 | |
| 20260505172324 | 17 | 229 | 3.2 | 8.0 | 0.00 | 0.00 | 0.00 | 60 | |
| 20260505171921 | 17 | 73 | 0.0 | 1.6 | 0.00 | 0.00 | 0.00 | 61 | |
| 20260505171719 | 17 | 73 | 0.0 | 9.7 | 0.00 | 0.00 | 0.00 | 62 | |
| 20260505171517 | 16 | 73 | 0.0 | 9.7 | 0.00 | 0.00 | 0.00 | 63 | |
| 20260505171114 | 16 | 208 | 0.0 | 14.5 | 0.00 | 0.00 | 0.00 | 63 | |
| 20260505170912 | 16 | 212 | 0.0 | 14.5 | 0.00 | 0.00 | 0.00 | 63 | |
| 20260505170710 | 16 | 265 | 0.0 | 9.7 | 0.00 | 0.00 | 0.00 | 63 | |
| 20260505170507 | 16 | 180 | 0.0 | 9.7 | 0.00 | 0.00 | 0.00 | 63 | |
| 20260505170306 | 16 | 257 | 3.2 | 11.3 | 0.00 | 0.00 | 0.00 | 64 | |
| 20260505170104 | 16 | 295 | 9.7 | 11.3 | 0.00 | 0.00 | 0.00 | 63 | |
| 20260505165902 | 16 | 302 | 8.0 | 11.3 | 0.00 | 0.00 | 0.00 | 64 | |
| 20260505165456 | 16 | 298 | 6.4 | 12.9 | 0.00 | 0.00 | 0.00 | 66 | |
| 20260505165256 | 15 | 274 | 6.4 | 11.3 | 0.00 | 0.00 | 0.00 | 67 | |
| 20260505165054 | 15 | 272 | 0.0 | 11.3 | 0.00 | 0.00 | 0.00 | 67 | |
| 20260505164852 | 15 | 277 | 9.7 | 11.3 | 0.00 | 0.00 | 0.00 | 67 | |
| 20260505164650 | 15 | 282 | 0.0 | 12.9 | 0.00 | 0.00 | 0.00 | 67 | |
| 20260505164447 | 15 | 310 | 8.0 | 12.9 | 0.00 | 0.00 | 0.00 | 67 | |
| 20260505164247 | 15 | 282 | 4.8 | 14.5 | 0.00 | 0.00 | 0.00 | 68 | |
| 20260505163843 | 15 | 267 | 9.7 | 14.5 | 0.00 | 0.00 | 0.00 | 68 | |
| 20260505163641 | 15 | 277 | 4.8 | 11.3 | 0.00 | 0.00 | 0.00 | 69 | |
| 20260505163437 | 15 | 254 | 3.2 | 11.3 | 0.00 | 0.00 | 0.00 | 69 | |
| 20260505163238 | 14 | 291 | 8.0 | 12.9 | 0.00 | 0.00 | 0.00 | 67 | |
| 20260505163035 | 15 | 302 | 6.4 | 12.9 | 0.00 | 0.00 | 0.00 | 67 | |
| 20260505162631 | 15 | 271 | 6.4 | 6.4 | 0.00 | 0.00 | 0.00 | 68 | |
| 20260505162429 | 15 | 334 | 4.8 | 6.4 | 0.00 | 0.00 | 0.00 | 70 | |
| 20260505162227 | 15 | 272 | 0.0 | 11.3 | 0.00 | 0.00 | 0.00 | 70 | |
| 20260505162026 | 15 | 298 | 3.2 | 11.3 | 0.00 | 0.00 | 0.00 | 70 | |
| 20260505161824 | 15 | 313 | 1.6 | 11.3 | 0.00 | 0.00 | 0.00 | 69 | |
| 20260505161622 | 15 | 261 | 1.6 | 8.0 | 0.00 | 0.00 | 0.00 | 69 | |
| 20260505161218 | 15 | 255 | 1.6 | 3.2 | 0.00 | 0.00 | 0.00 | 72 | |
| 20260505160814 | 15 | 99 | 0.0 | 6.4 | 0.00 | 0.00 | 0.00 | 74 | |
| 20260505160613 | 15 | 306 | 1.6 | 6.4 | 0.00 | 0.00 | 0.00 | 73 | |
| 20260505160410 | 15 | 277 | 0.0 | 6.4 | 0.00 | 0.00 | 0.00 | 73 | |
| 20260505160209 | 15 | 281 | 0.0 | 6.4 | 0.00 | 0.00 | 0.00 | 72 | |
| 20260505153139 | 14 | 188 | 1.6 | 3.2 | 0.00 | 0.00 | 0.00 | 76 | |
| 20260505152938 | 14 | 151 | 1.6 | 3.2 | 0.00 | 0.00 | 0.00 | 76 | |
| 20260505152736 | 14 | 113 | 0.0 | 3.2 | 0.00 | 0.00 | 0.00 | 78 | |
| 20260505152534 | 14 | 149 | 1.6 | 3.2 | 0.00 | 0.00 | 0.00 | 79 | |
| 20260505152332 | 13 | 143 | 0.0 | 3.2 | 0.00 | 0.00 | 0.00 | 80 | |
| 20260505152130 | 13 | 132 | 1.6 | 4.8 | 0.00 | 0.00 | 0.00 | 81 | |
| 20260505151929 | 13 | 81 | 0.0 | 4.8 | 0.00 | 0.00 | 0.00 | 80 | |
| 20260505151727 | 13 | 85 | 1.6 | 0.0 | 0.00 | 0.00 | 0.00 | 80 | |
| 20260505151323 | 13 | 102 | 0.0 | 0.0 | 0.00 | 0.00 | 0.00 | 81 | |
| 20260505150919 | 13 | 102 | 0.0 | 1.6 | 0.00 | 0.00 | 0.00 | 81 | |
| 20260505150717 | 13 | 102 | 0.0 | 4.8 | 0.00 | 0.00 | 0.00 | 80 | |
| 20260505150515 | 13 | 102 | 0.0 | 4.8 | 0.00 | 0.00 | 0.00 | 80 | |
| 20260505150311 | 13 | 115 | 1.6 | 3.2 | 0.00 | 0.00 | 0.00 | 79 | |
| 20260505150111 | 13 | 42 | 0.0 | 3.2 | 0.00 | 0.00 | 0.00 | 79 | |
| 20260505140620 | 11 | 118 | 1.6 | 8.0 | 0.00 | 0.00 | 0.00 | 87 | |
| 20260505140418 | 11 | 118 | 0.0 | 8.0 | 0.00 | 0.00 | 0.00 | 87 | |
| 20260505140216 | 11 | 125 | 3.2 | 6.4 | 0.00 | 0.00 | 0.00 | 87 | |
| 20260505124909 | 10 | 265 | 0.0 | 0.0 | 0.00 | 0.00 | 0.00 | 89 | |
| 20260505124504 | 10 | 265 | 0.0 | 0.0 | 0.00 | 0.00 | 0.00 | 89 | |
| 20260505124100 | 10 | 265 | 0.0 | 0.0 | 0.00 | 0.00 | 0.00 | 89 | |
| 20260505123858 | 10 | 265 | 0.0 | 0.0 | 0.00 | 0.00 | 0.00 | 89 | |
| 20260505123656 | 10 | 265 | 0.0 | 0.0 | 0.00 | 0.00 | 0.00 | 89 | |
| 20260505123454 | 10 | 265 | 0.0 | 0.0 | 0.00 | 0.00 | 0.00 | 90 | |
| 20260505123252 | 10 | 265 | 0.0 | 0.0 | 0.00 | 0.00 | 0.00 | 90 | |
| 20260505123050 | 10 | 265 | 0.0 | 0.0 | 0.00 | 0.00 | 0.00 | 89 | |
| 20260505122849 | 10 | 265 | 0.0 | 0.0 | 0.00 | 0.00 | 0.00 | 90 | |
| 20260505122647 | 10 | 265 | 0.0 | 0.0 | 0.00 | 0.00 | 0.00 | 90 | |
| 20260505122444 | 10 | 265 | 0.0 | 0.0 | 0.00 | 0.00 | 0.00 | 89 | |
| 20260505122243 | 10 | 265 | 0.0 | 0.0 | 0.00 | 0.00 | 0.00 | 90 | |
| 20260505121839 | 10 | 265 | 0.0 | 0.0 | 0.00 | 0.00 | 0.00 | 90 | |
| 20260505121637 | 10 | 265 | 0.0 | 0.0 | 0.00 | 0.00 | 0.00 | 90 | |
| 20260505121435 | 10 | 265 | 0.0 | 0.0 | 0.00 | 0.00 | 0.00 | 90 | |
| 20260505121233 | 10 | 265 | 0.0 | 0.0 | 0.00 | 0.00 | 0.00 | 90 | |
| 20260505121031 | 10 | 265 | 0.0 | 0.0 | 0.00 | 0.00 | 0.00 | 90 | |
| 20260505120628 | 10 | 265 | 0.0 | 0.0 | 0.00 | 0.00 | 0.00 | 89 | |
| 20260505120426 | 10 | 265 | 0.0 | 0.0 | 0.00 | 0.00 | 0.00 | 89 | |
| 20260505120224 | 10 | 265 | 0.0 | 0.0 | 0.00 | 0.00 | 0.00 | 89 | |
| 20260505120020 | 10 | 265 | 0.0 | 0.0 | 0.00 | 0.00 | 0.00 | 89 | |
| 20260505115820 | 10 | 265 | 0.0 | 0.0 | 0.00 | 0.00 | 0.00 | 89 | |
| 20260505115618 | 10 | 265 | 0.0 | 0.0 | 0.00 | 0.00 | 0.00 | 89 | |
| 20260505115415 | 10 | 265 | 0.0 | 0.0 | 0.00 | 0.00 | 0.00 | 90 | |
| 20260505115214 | 10 | 265 | 0.0 | 0.0 | 0.00 | 0.00 | 0.00 | 90 | |
| 20260505115012 | 10 | 265 | 0.0 | 0.0 | 0.00 | 0.00 | 0.00 | 89 | |
| 20260505114810 | 10 | 265 | 0.0 | 0.0 | 0.00 | 0.00 | 0.00 | 89 | |
| 20260505114609 | 10 | 265 | 0.0 | 0.0 | 0.00 | 0.00 | 0.00 | 89 | |
| 20260505114407 | 10 | 265 | 0.0 | 0.0 | 0.00 | 0.00 | 0.00 | 89 | |
| 20260505114205 | 10 | 265 | 0.0 | 0.0 | 0.00 | 0.00 | 0.00 | 89 | |
| 20260505114003 | 10 | 265 | 0.0 | 0.0 | 0.00 | 0.00 | 0.00 | 89 | |
| 20260505113801 | 10 | 265 | 0.0 | 0.0 | 0.00 | 0.00 | 0.00 | 89 | |
| 20260505113559 | 10 | 265 | 0.0 | 0.0 | 0.00 | 0.00 | 0.00 | 89 | |
| 20260505113357 | 10 | 265 | 0.0 | 0.0 | 0.00 | 0.00 | 0.00 | 89 | |
| 20260505113155 | 10 | 265 | 0.0 | 0.0 | 0.00 | 0.00 | 0.00 | 89 | |
| 20260505112953 | 10 | 265 | 0.0 | 0.0 | 0.00 | 0.00 | 0.00 | 89 | |
| 20260505112751 | 10 | 265 | 0.0 | 0.0 | 0.00 | 0.00 | 0.00 | 89 | |
| 20260505112549 | 10 | 265 | 0.0 | 0.0 | 0.00 | 0.00 | 0.00 | 89 | |
| 20260505112348 | 11 | 265 | 0.0 | 0.0 | 0.00 | 0.00 | 0.00 | 89 | |
| 20260505111943 | 11 | 265 | 0.0 | 0.0 | 0.00 | 0.00 | 0.00 | 88 | |
| 20260505111742 | 11 | 265 | 0.0 | 0.0 | 0.00 | 0.00 | 0.00 | 88 | |
| 20260505111540 | 11 | 265 | 0.0 | 0.0 | 0.00 | 0.00 | 0.00 | 88 | |
| 20260505111338 | 11 | 265 | 0.0 | 0.0 | 0.00 | 0.00 | 0.00 | 89 | |
| 20260505111134 | 11 | 265 | 0.0 | 0.0 | 0.00 | 0.00 | 0.00 | 89 | |
| 20260505110934 | 11 | 265 | 0.0 | 0.0 | 0.00 | 0.00 | 0.00 | 88 | |
| 20260505110733 | 11 | 265 | 0.0 | 0.0 | 0.00 | 0.00 | 0.00 | 88 | |
| 20260505110530 | 11 | 265 | 0.0 | 0.0 | 0.00 | 0.00 | 0.00 | 88 | |
| 20260505110329 | 11 | 265 | 0.0 | 0.0 | 0.00 | 0.00 | 0.00 | 88 | |
| 20260505110127 | 11 | 265 | 0.0 | 0.0 | 0.00 | 0.00 | 0.00 | 87 | |
| 20260505102049 | 11 | 265 | 0.0 | 0.0 | 0.00 | 0.00 | 0.00 | 86 | |
| 20260505101845 | 11 | 265 | 0.0 | 0.0 | 0.00 | 0.00 | 0.00 | 86 | |
| 20260505101645 | 12 | 265 | 0.0 | 0.0 | 0.00 | 0.00 | 0.00 | 86 | |
| 20260505101443 | 11 | 265 | 0.0 | 0.0 | 0.00 | 0.00 | 0.00 | 86 | |
| 20260505101241 | 12 | 265 | 0.0 | 0.0 | 0.00 | 0.00 | 0.00 | 86 | |
| 20260505101039 | 11 | 265 | 0.0 | 0.0 | 0.00 | 0.00 | 0.00 | 86 | |
| 20260505100837 | 12 | 265 | 0.0 | 0.0 | 0.00 | 0.00 | 0.00 | 86 | |
| 20260505100635 | 12 | 265 | 0.0 | 0.0 | 0.00 | 0.00 | 0.00 | 86 | |
| 20260505100433 | 12 | 265 | 0.0 | 0.0 | 0.00 | 0.00 | 0.00 | 86 | |
| 20260505100231 | 12 | 265 | 0.0 | 0.0 | 0.00 | 0.00 | 0.00 | 86 | |
| 20260505100030 | 12 | 265 | 0.0 | 0.0 | 0.00 | 0.00 | 0.00 | 86 | |
| 20260505095827 | 12 | 265 | 0.0 | 0.0 | 0.00 | 0.00 | 0.00 | 86 | |
| 20260505095626 | 12 | 265 | 0.0 | 0.0 | 0.00 | 0.00 | 0.00 | 86 | |
| 20260505095424 | 12 | 265 | 0.0 | 0.0 | 0.00 | 0.00 | 0.00 | 86 | |
| 20260505095222 | 12 | 265 | 0.0 | 0.0 | 0.00 | 0.00 | 0.00 | 86 | |
| 20260505095018 | 12 | 265 | 0.0 | 0.0 | 0.00 | 0.00 | 0.00 | 86 | |
| 20260505094818 | 12 | 265 | 0.0 | 0.0 | 0.00 | 0.00 | 0.00 | 86 | |
| 20260505094412 | 12 | 265 | 0.0 | 0.0 | 0.00 | 0.00 | 0.00 | 86 | |
| 20260505094212 | 12 | 265 | 0.0 | 0.0 | 0.00 | 0.00 | 0.00 | 86 | |
| 20260505094010 | 12 | 265 | 0.0 | 0.0 | 0.00 | 0.00 | 0.00 | 86 | |
| 20260505093808 | 12 | 265 | 0.0 | 0.0 | 0.00 | 0.00 | 0.00 | 86 | |
| 20260505093607 | 12 | 265 | 0.0 | 0.0 | 0.00 | 0.00 | 0.00 | 86 | |
| 20260505093405 | 12 | 265 | 0.0 | 0.0 | 0.00 | 0.00 | 0.00 | 86 | |
| 20260505093201 | 12 | 265 | 0.0 | 0.0 | 0.00 | 0.00 | 0.00 | 86 | |
| 20260505093001 | 12 | 265 | 0.0 | 0.0 | 0.00 | 0.00 | 0.00 | 85 | |
| 20260505092759 | 12 | 265 | 0.0 | 0.0 | 0.00 | 0.00 | 0.00 | 85 | |
| 20260505092557 | 12 | 265 | 0.0 | 0.0 | 0.00 | 0.00 | 0.00 | 85 | |
| 20260505092355 | 12 | 265 | 0.0 | 0.0 | 0.00 | 0.00 | 0.00 | 85 | |
| 20260505092153 | 12 | 265 | 0.0 | 0.0 | 0.00 | 0.00 | 0.00 | 85 | |
| 20260505091951 | 12 | 265 | 0.0 | 0.0 | 0.00 | 0.00 | 0.00 | 85 | |
| 20260505091749 | 12 | 265 | 0.0 | 0.0 | 0.00 | 0.00 | 0.00 | 85 | |
| 20260505091548 | 12 | 265 | 0.0 | 0.0 | 0.00 | 0.00 | 0.00 | 85 | |
| 20260505091346 | 12 | 265 | 0.0 | 0.0 | 0.00 | 0.00 | 0.00 | 85 | |
| 20260505091143 | 12 | 265 | 0.0 | 0.0 | 0.00 | 0.00 | 0.00 | 85 | |
| 20260505090738 | 12 | 265 | 0.0 | 0.0 | 0.00 | 0.00 | 0.00 | 85 | |
| 20260505090538 | 12 | 265 | 0.0 | 0.0 | 0.00 | 0.00 | 0.00 | 85 | |
| 20260505090336 | 12 | 265 | 0.0 | 0.0 | 0.00 | 0.00 | 0.00 | 85 | |
| 20260505090134 | 12 | 265 | 0.0 | 0.0 | 0.00 | 0.00 | 0.00 | 85 | |
| 20260505085932 | 12 | 265 | 0.0 | 0.0 | 0.00 | 0.00 | 0.00 | 86 | |
| 20260505085730 | 12 | 265 | 0.0 | 0.0 | 0.00 | 0.00 | 0.00 | 86 | |
| 20260505085528 | 12 | 265 | 0.0 | 0.0 | 0.00 | 0.00 | 0.00 | 86 | |
| 20260505085326 | 12 | 265 | 0.0 | 0.0 | 0.00 | 0.00 | 0.00 | 86 | |
| 20260505085125 | 12 | 265 | 0.0 | 0.0 | 0.00 | 0.00 | 0.00 | 86 | |
| 20260505084923 | 12 | 265 | 0.0 | 0.0 | 0.00 | 0.00 | 0.00 | 86 | |
| 20260505084721 | 12 | 265 | 0.0 | 0.0 | 0.00 | 0.00 | 0.00 | 86 | |
| 20260505084519 | 12 | 265 | 0.0 | 0.0 | 0.00 | 0.00 | 0.00 | 85 | |
| 20260505084317 | 12 | 265 | 0.0 | 0.0 | 0.00 | 0.00 | 0.00 | 85 | |
| 20260505084115 | 12 | 265 | 0.0 | 0.0 | 0.00 | 0.00 | 0.00 | 85 | |
| 20260505083913 | 12 | 265 | 0.0 | 0.0 | 0.00 | 0.00 | 0.00 | 85 | |
| 20260505083711 | 12 | 265 | 0.0 | 0.0 | 0.00 | 0.00 | 0.00 | 85 | |
| 20260505083509 | 12 | 265 | 0.0 | 0.0 | 0.00 | 0.00 | 0.00 | 85 | |
| 20260505083307 | 12 | 265 | 0.0 | 0.0 | 0.00 | 0.00 | 0.00 | 85 | |
| 20260505083105 | 12 | 265 | 0.0 | 0.0 | 0.00 | 0.00 | 0.00 | 85 | |
| 20260505082904 | 12 | 265 | 0.0 | 0.0 | 0.00 | 0.00 | 0.00 | 85 | |
| 20260505082702 | 12 | 265 | 0.0 | 0.0 | 0.00 | 0.00 | 0.00 | 85 | |
| 20260505082500 | 12 | 265 | 0.0 | 0.0 | 0.00 | 0.00 | 0.00 | 85 | |
| 20260505082258 | 12 | 265 | 0.0 | 0.0 | 0.00 | 0.00 | 0.00 | 85 | |
| 20260505082056 | 12 | 265 | 0.0 | 0.0 | 0.00 | 0.00 | 0.00 | 85 | |
| 20260505081854 | 12 | 265 | 0.0 | 0.0 | 0.00 | 0.00 | 0.00 | 85 | |
| 20260505081652 | 12 | 265 | 0.0 | 0.0 | 0.00 | 0.00 | 0.00 | 85 | |
| 20260505081448 | 12 | 265 | 0.0 | 0.0 | 0.00 | 0.00 | 0.00 | 85 | |
| 20260505081248 | 12 | 265 | 0.0 | 0.0 | 0.00 | 0.00 | 0.00 | 85 | |
| 20260505081045 | 12 | 265 | 0.0 | 0.0 | 0.00 | 0.00 | 0.00 | 85 | |
| 20260505080845 | 12 | 265 | 0.0 | 0.0 | 0.00 | 0.00 | 0.00 | 85 | |
| 20260505080643 | 12 | 265 | 0.0 | 0.0 | 0.00 | 0.00 | 0.00 | 85 | |
| 20260505080441 | 12 | 265 | 0.0 | 0.0 | 0.00 | 0.00 | 0.00 | 85 | |
| 20260505080238 | 12 | 265 | 0.0 | 0.0 | 0.00 | 0.00 | 0.00 | 85 | |
| 20260505080035 | 12 | 265 | 0.0 | 0.0 | 0.00 | 0.00 | 0.00 | 85 | |
| 20260505075835 | 12 | 265 | 0.0 | 0.0 | 0.00 | 0.00 | 0.00 | 85 | |
| 20260505075633 | 12 | 265 | 0.0 | 0.0 | 0.00 | 0.00 | 0.00 | 85 | |
| 20260505075433 | 12 | 265 | 0.0 | 0.0 | 0.00 | 0.00 | 0.00 | 85 | |
| 20260505075027 | 12 | 265 | 0.0 | 0.0 | 0.00 | 0.00 | 0.00 | 85 | |
| 20260505074825 | 12 | 265 | 0.0 | 0.0 | 0.00 | 0.00 | 0.00 | 85 | |
| 20260505074624 | 12 | 265 | 0.0 | 0.0 | 0.00 | 0.00 | 0.00 | 84 | |
| 20260505074422 | 12 | 265 | 0.0 | 0.0 | 0.00 | 0.00 | 0.00 | 84 | |
| 20260505074220 | 12 | 265 | 0.0 | 0.0 | 0.00 | 0.00 | 0.00 | 84 | |
| 20260505074018 | 12 | 265 | 0.0 | 0.0 | 0.00 | 0.00 | 0.00 | 84 | |
| 20260505073816 | 12 | 265 | 0.0 | 0.0 | 0.00 | 0.00 | 0.00 | 84 | |
| 20260505073614 | 12 | 265 | 0.0 | 0.0 | 0.00 | 0.00 | 0.00 | 84 | |
| 20260505073412 | 12 | 265 | 0.0 | 0.0 | 0.00 | 0.00 | 0.00 | 84 | |
| 20260505073210 | 12 | 265 | 0.0 | 0.0 | 0.00 | 0.00 | 0.00 | 84 | |
| 20260505073008 | 12 | 265 | 0.0 | 0.0 | 0.00 | 0.00 | 0.00 | 84 | |
| 20260505072806 | 12 | 265 | 0.0 | 0.0 | 0.00 | 0.00 | 0.00 | 84 | |
| 20260505072604 | 12 | 265 | 0.0 | 0.0 | 0.00 | 0.00 | 0.00 | 84 | |
| 20260505072403 | 12 | 265 | 0.0 | 0.0 | 0.00 | 0.00 | 0.00 | 84 | |
| 20260505072200 | 12 | 265 | 0.0 | 0.0 | 0.00 | 0.00 | 0.00 | 84 | |
| 20260505071959 | 12 | 265 | 0.0 | 0.0 | 0.00 | 0.00 | 0.00 | 84 | |
| 20260505071756 | 12 | 265 | 0.0 | 0.0 | 0.00 | 0.00 | 0.00 | 84 | |
| 20260505071554 | 12 | 265 | 0.0 | 0.0 | 0.00 | 0.00 | 0.00 | 84 | |
| 20260505071353 | 12 | 265 | 0.0 | 0.0 | 0.00 | 0.00 | 0.00 | 84 | |
| 20260505071151 | 12 | 265 | 0.0 | 0.0 | 0.00 | 0.00 | 0.00 | 83 | |
| 20260505070947 | 12 | 265 | 0.0 | 0.0 | 0.00 | 0.00 | 0.00 | 83 | |
| 20260505070747 | 12 | 265 | 0.0 | 0.0 | 0.00 | 0.00 | 0.00 | 83 | |
| 20260505070343 | 12 | 265 | 0.0 | 0.0 | 0.00 | 0.00 | 0.00 | 83 | |
| 20260505070142 | 12 | 265 | 0.0 | 0.0 | 0.00 | 0.00 | 0.00 | 83 | |
| 20260505065940 | 12 | 265 | 0.0 | 0.0 | 0.00 | 0.00 | 0.00 | 83 | |
| 20260505065738 | 12 | 265 | 0.0 | 0.0 | 0.00 | 0.00 | 0.00 | 83 | |
| 20260505065537 | 12 | 265 | 0.0 | 0.0 | 0.00 | 0.00 | 0.00 | 83 | |
| 20260505065132 | 12 | 265 | 0.0 | 0.0 | 0.00 | 0.00 | 0.00 | 82 | |
| 20260505064930 | 12 | 265 | 0.0 | 0.0 | 0.00 | 0.00 | 0.00 | 82 | |
| 20260505064728 | 13 | 265 | 0.0 | 0.0 | 0.00 | 0.00 | 0.00 | 82 | |
| 20260505064526 | 13 | 265 | 0.0 | 0.0 | 0.00 | 0.00 | 0.00 | 82 | |
| 20260505064324 | 13 | 265 | 0.0 | 0.0 | 0.00 | 0.00 | 0.00 | 82 | |
| 20260505064122 | 13 | 265 | 0.0 | 0.0 | 0.00 | 0.00 | 0.00 | 82 | |
| 20260505063921 | 13 | 265 | 0.0 | 0.0 | 0.00 | 0.00 | 0.00 | 82 | |
| 20260505063719 | 13 | 265 | 0.0 | 1.6 | 0.00 | 0.00 | 0.00 | 82 | |
| 20260505063517 | 13 | 265 | 0.0 | 1.6 | 0.00 | 0.00 | 0.00 | 82 | |
| 20260505063314 | 13 | 265 | 0.0 | 0.0 | 0.00 | 0.00 | 0.00 | 82 | |
| 20260505062911 | 13 | 261 | 0.0 | 0.0 | 0.00 | 0.00 | 0.00 | 82 | |
| 20260505062709 | 13 | 261 | 0.0 | 3.2 | 0.00 | 0.00 | 0.00 | 82 | |
| 20260505062507 | 13 | 261 | 0.0 | 3.2 | 0.00 | 0.00 | 0.00 | 82 | |
| 20260505062305 | 13 | 261 | 0.0 | 3.2 | 0.00 | 0.00 | 0.00 | 82 | |
| 20260505062103 | 13 | 261 | 0.0 | 3.2 | 0.00 | 0.00 | 0.00 | 82 | |
| 20260505061900 | 13 | 272 | 1.6 | 3.2 | 0.00 | 0.00 | 0.00 | 82 | |
| 20260505061700 | 13 | 239 | 0.0 | 3.2 | 0.00 | 0.00 | 0.00 | 82 | |
| 20260505061256 | 13 | 270 | 0.0 | 0.0 | 0.00 | 0.00 | 0.00 | 82 | |
| 20260505061054 | 13 | 281 | 1.6 | 0.0 | 0.00 | 0.00 | 0.00 | 82 | |
| 20260505060852 | 13 | 244 | 0.0 | 0.0 | 0.00 | 0.00 | 0.00 | 82 | |
| 20260505060650 | 13 | 244 | 0.0 | 0.0 | 0.00 | 0.00 | 0.00 | 81 | |
| 20260505060448 | 13 | 244 | 0.0 | 0.0 | 0.00 | 0.00 | 0.00 | 81 | |
| 20260505060246 | 13 | 244 | 0.0 | 0.0 | 0.00 | 0.00 | 0.00 | 81 | |
| 20260505060045 | 13 | 244 | 0.0 | 0.0 | 0.00 | 0.00 | 0.00 | 81 | |
| 20260505055841 | 13 | 244 | 0.0 | 0.0 | 0.00 | 0.00 | 0.00 | 81 | |
| 20260505055641 | 13 | 244 | 0.0 | 0.0 | 0.00 | 0.00 | 0.00 | 81 | |
| 20260505055439 | 13 | 244 | 0.0 | 0.0 | 0.00 | 0.00 | 0.00 | 81 | |
| 20260505055237 | 13 | 244 | 0.0 | 0.0 | 0.00 | 0.00 | 0.00 | 81 | |
| 20260505055034 | 13 | 244 | 0.0 | 0.0 | 0.00 | 0.00 | 0.00 | 81 | |
| 20260505054833 | 13 | 244 | 0.0 | 0.0 | 0.00 | 0.00 | 0.00 | 81 | |
| 20260505054631 | 13 | 244 | 0.0 | 3.2 | 0.00 | 0.00 | 0.00 | 81 | |
| 20260505054429 | 13 | 244 | 0.0 | 3.2 | 0.00 | 0.00 | 0.00 | 80 | |
| 20260505054227 | 13 | 217 | 0.0 | 6.4 | 0.00 | 0.00 | 0.00 | 80 | |
| 20260505054025 | 13 | 248 | 0.0 | 6.4 | 0.00 | 0.00 | 0.00 | 80 | |
| 20260505053824 | 13 | 244 | 0.0 | 6.4 | 0.00 | 0.00 | 0.00 | 80 | |
| 20260505053621 | 13 | 267 | 1.6 | 11.3 | 0.00 | 0.00 | 0.00 | 80 | |
| 20260505053420 | 13 | 262 | 3.2 | 11.3 | 0.00 | 0.00 | 0.00 | 80 | |
| 20260505053218 | 13 | 270 | 8.0 | 4.8 | 0.00 | 0.00 | 0.00 | 80 | |
| 20260505053016 | 13 | 288 | 8.0 | 4.8 | 0.00 | 0.00 | 0.00 | 80 | |
| 20260505052813 | 13 | 267 | 0.0 | 9.7 | 0.00 | 0.00 | 0.00 | 81 | |
| 20260505052612 | 13 | 255 | 1.6 | 9.7 | 0.00 | 0.00 | 0.00 | 81 | |
| 20260505052410 | 13 | 274 | 0.0 | 9.7 | 0.00 | 0.00 | 0.00 | 81 | |
| 20260505052209 | 13 | 298 | 3.2 | 9.7 | 0.00 | 0.00 | 0.00 | 81 | |
| 20260505051804 | 13 | 285 | 6.4 | 4.8 | 0.00 | 0.00 | 0.00 | 83 | |
| 20260505051601 | 13 | 277 | 0.0 | 4.8 | 0.00 | 0.00 | 0.00 | 83 | |
| 20260505051401 | 13 | 277 | 0.0 | 4.8 | 0.00 | 0.00 | 0.00 | 84 | |
| 20260505051159 | 13 | 281 | 3.2 | 6.4 | 0.00 | 0.00 | 0.00 | 84 | |
| 20260505050957 | 13 | 262 | 0.0 | 6.4 | 0.00 | 0.00 | 0.00 | 84 | |
| 20260505050753 | 13 | 271 | 0.0 | 4.8 | 0.00 | 0.00 | 0.00 | 84 | |
| 20260505050553 | 13 | 272 | 1.6 | 4.8 | 0.00 | 0.00 | 0.00 | 84 | |
| 20260505041707 | 13 | 199 | 0.0 | 8.0 | 0.00 | 0.00 | 0.00 | 80 | |
| 20260505041507 | 13 | 202 | 0.0 | 8.0 | 0.00 | 0.00 | 0.00 | 80 | |
| 20260505040900 | 13 | 265 | 6.4 | 8.0 | 0.00 | 0.00 | 0.00 | 79 | |
| 20260505040658 | 13 | 248 | 1.6 | 8.0 | 0.00 | 0.00 | 0.00 | 79 | |
| 20260505040254 | 13 | 239 | 0.0 | 6.4 | 0.00 | 0.00 | 0.00 | 79 | |
| 20260505040052 | 13 | 229 | 0.0 | 6.4 | 0.00 | 0.00 | 0.00 | 79 | |
| 20260505035648 | 13 | 237 | 1.6 | 12.9 | 0.00 | 0.00 | 0.00 | 80 | |
| 20260505035446 | 13 | 270 | 4.8 | 12.9 | 0.00 | 0.00 | 0.00 | 80 | |
| 20260505035245 | 13 | 284 | 1.6 | 12.9 | 0.00 | 0.00 | 0.00 | 80 | |
| 20260505035043 | 13 | 264 | 9.7 | 12.9 | 0.00 | 0.00 | 0.00 | 79 | |
| 20260505034841 | 13 | 115 | 3.2 | 12.9 | 0.00 | 0.00 | 0.00 | 79 | |
| 20260505034639 | 13 | 239 | 1.6 | 20.9 | 0.00 | 0.00 | 0.00 | 80 | |
| 20260505034437 | 13 | 277 | 3.2 | 20.9 | 0.00 | 0.00 | 0.00 | 80 | |
| 20260505034235 | 13 | 254 | 4.8 | 16.1 | 0.00 | 0.00 | 0.00 | 81 | |
| 20260505034033 | 13 | 229 | 3.2 | 16.1 | 0.00 | 0.00 | 0.00 | 83 | |
| 20260505033830 | 13 | 296 | 11.3 | 16.1 | 0.00 | 0.00 | 0.00 | 83 | |
| 20260505033627 | 13 | 265 | 8.0 | 9.7 | 0.00 | 0.00 | 0.00 | 83 | |
| 20260505033427 | 14 | 293 | 6.4 | 9.7 | 0.00 | 0.00 | 0.00 | 83 | |
| 20260505033224 | 13 | 272 | 8.0 | 11.3 | 0.00 | 0.00 | 0.00 | 83 | |
| 20260505033024 | 13 | 268 | 8.0 | 11.3 | 0.00 | 0.00 | 0.00 | 82 | |
| 20260505032821 | 13 | 272 | 6.4 | 12.9 | 0.00 | 0.00 | 0.00 | 82 | |
| 20260505032620 | 13 | 281 | 6.4 | 12.9 | 0.00 | 0.00 | 0.00 | 82 | |
| 20260505032418 | 13 | 264 | 3.2 | 12.9 | 0.00 | 0.00 | 0.00 | 82 | |
| 20260505032215 | 13 | 270 | 6.4 | 14.5 | 0.00 | 0.00 | 0.00 | 82 | |
| 20260505032014 | 13 | 271 | 12.9 | 14.5 | 0.00 | 0.00 | 0.00 | 82 | |
| 20260505031812 | 13 | 248 | 9.7 | 14.5 | 0.00 | 0.00 | 0.00 | 82 | |
| 20260505031408 | 13 | 250 | 11.3 | 14.5 | 0.00 | 0.00 | 0.00 | 81 | |
| 20260505031207 | 13 | 284 | 8.0 | 17.7 | 0.00 | 0.00 | 0.00 | 81 | |
| 20260505030803 | 13 | 250 | 8.0 | 17.7 | 0.00 | 0.00 | 0.00 | 80 | |
| 20260505030601 | 13 | 255 | 8.0 | 17.7 | 0.00 | 0.00 | 0.00 | 80 | |
| 20260505030359 | 13 | 260 | 14.5 | 17.7 | 0.00 | 0.00 | 0.00 | 79 | |
| 20260505030155 | 14 | 270 | 8.0 | 14.5 | 0.00 | 0.00 | 0.00 | 78 | |
| 20260505025955 | 14 | 272 | 6.4 | 14.5 | 0.00 | 0.00 | 0.00 | 79 | |
| 20260505025753 | 14 | 284 | 9.7 | 16.1 | 0.00 | 0.00 | 0.00 | 78 | |
| 20260505025551 | 14 | 257 | 8.0 | 16.1 | 0.00 | 0.00 | 0.00 | 78 | |
| 20260505025349 | 14 | 277 | 8.0 | 16.1 | 0.00 | 0.00 | 0.00 | 78 | |
| 20260505025147 | 14 | 262 | 8.0 | 17.7 | 0.00 | 0.00 | 0.00 | 78 | |
| 20260505024945 | 14 | 272 | 6.4 | 17.7 | 0.00 | 0.00 | 0.00 | 77 | |
| 20260505024742 | 14 | 248 | 6.4 | 17.7 | 0.00 | 0.00 | 0.00 | 77 | |
| 20260505024540 | 14 | 243 | 14.5 | 17.7 | 0.00 | 0.00 | 0.00 | 78 | |
| 20260505024138 | 14 | 284 | 9.7 | 20.9 | 0.00 | 0.00 | 0.00 | 78 | |
| 20260505023934 | 14 | 271 | 17.7 | 20.9 | 0.00 | 0.00 | 0.00 | 78 | |
| 20260505023732 | 14 | 255 | 11.3 | 20.9 | 0.00 | 0.00 | 0.00 | 78 | |
| 20260505023530 | 14 | 229 | 16.1 | 20.9 | 0.00 | 0.00 | 0.00 | 78 | |
| 20260505023128 | 15 | 258 | 11.3 | 20.9 | 0.00 | 0.00 | 0.00 | 77 | |
| 20260505022926 | 15 | 275 | 12.9 | 20.9 | 0.00 | 0.00 | 0.00 | 77 | |
| 20260505022725 | 15 | 258 | 11.3 | 24.1 | 0.00 | 0.00 | 0.00 | 77 | |
| 20260505022522 | 15 | 260 | 8.0 | 24.1 | 0.00 | 0.00 | 0.00 | 78 | |
| 20260505022320 | 15 | 282 | 4.8 | 19.3 | 0.00 | 0.00 | 0.00 | 78 | |
| 20260505021513 | 15 | 274 | 11.3 | 19.3 | 0.00 | 0.00 | 0.00 | 77 | |
| 20260505021311 | 15 | 262 | 12.9 | 17.7 | 0.00 | 0.00 | 0.00 | 77 | |
| 20260505020907 | 15 | 241 | 9.7 | 17.7 | 0.00 | 0.00 | 0.00 | 76 | |
| 20260505020705 | 15 | 116 | 1.6 | 14.5 | 0.00 | 0.00 | 0.00 | 75 | |
| 20260505020504 | 15 | 227 | 6.4 | 14.5 | 0.00 | 0.00 | 0.00 | 75 | |
| 20260505020100 | 15 | 98 | 4.8 | 20.9 | 0.00 | 0.00 | 0.00 | 75 | |
| 20260505015858 | 15 | 262 | 4.8 | 20.9 | 0.00 | 0.00 | 0.00 | 75 | |
| 20260505015454 | 15 | 195 | 1.6 | 9.7 | 0.00 | 0.00 | 0.00 | 76 | |
| 20260505015253 | 15 | 226 | 1.6 | 11.3 | 0.00 | 0.00 | 0.00 | 76 | |
| 20260505015050 | 15 | 195 | 0.0 | 11.3 | 0.00 | 0.00 | 0.00 | 76 | |
| 20260505014849 | 15 | 229 | 9.7 | 11.3 | 0.00 | 0.00 | 0.00 | 76 | |
| 20260505014647 | 15 | 248 | 6.4 | 6.4 | 0.00 | 0.00 | 0.00 | 76 | |
| 20260505014444 | 15 | 268 | 0.0 | 6.4 | 0.00 | 0.00 | 0.00 | 75 | |
| 20260505014243 | 15 | 222 | 1.6 | 14.5 | 0.00 | 0.00 | 0.00 | 75 | |
| 20260505013839 | 15 | 288 | 1.6 | 14.5 | 0.00 | 0.00 | 0.00 | 76 | |
| 20260505013637 | 15 | 286 | 4.8 | 14.5 | 0.00 | 0.00 | 0.00 | 76 | |
| 20260505013435 | 15 | 257 | 6.4 | 14.5 | 0.00 | 0.00 | 0.00 | 76 | |
| 20260505013233 | 15 | 268 | 3.2 | 14.5 | 0.00 | 0.00 | 0.00 | 76 | |
| 20260505013031 | 15 | 250 | 8.0 | 14.5 | 0.00 | 0.00 | 0.00 | 76 | |
| 20260505012829 | 15 | 278 | 8.0 | 14.5 | 0.00 | 0.00 | 0.00 | 76 | |
| 20260505012628 | 15 | 267 | 9.7 | 20.9 | 0.00 | 0.00 | 0.00 | 76 | |
| 20260505012426 | 15 | 261 | 11.3 | 20.9 | 0.00 | 0.00 | 0.00 | 76 | |
| 20260505012022 | 15 | 267 | 17.7 | 20.9 | 0.00 | 0.00 | 0.00 | 75 | |
| 20260505011820 | 15 | 262 | 11.3 | 12.9 | 0.00 | 0.00 | 0.00 | 74 | |
| 20260505011618 | 15 | 268 | 12.9 | 12.9 | 0.00 | 0.00 | 0.00 | 74 | |
| 20260505011416 | 16 | 254 | 14.5 | 12.9 | 0.00 | 0.00 | 0.00 | 72 | |
| 20260505011214 | 16 | 116 | 0.0 | 16.1 | 0.00 | 0.00 | 0.00 | 73 | |
| 20260505011011 | 16 | 220 | 1.6 | 16.1 | 0.00 | 0.00 | 0.00 | 73 | |
| 20260505010811 | 16 | 195 | 0.0 | 14.5 | 0.00 | 0.00 | 0.00 | 73 | |
| 20260505010608 | 16 | 264 | 3.2 | 14.5 | 0.00 | 0.00 | 0.00 | 74 | |
| 20260505010407 | 16 | 260 | 12.9 | 14.5 | 0.00 | 0.00 | 0.00 | 73 | |
| 20260505010203 | 16 | 260 | 9.7 | 20.9 | 0.00 | 0.00 | 0.00 | 72 | |
| 20260505010003 | 16 | 151 | 4.8 | 20.9 | 0.00 | 0.00 | 0.00 | 72 | |
| 20260505005801 | 16 | 253 | 9.7 | 22.5 | 0.00 | 0.00 | 0.00 | 71 | |
| 20260505005559 | 16 | 246 | 14.5 | 22.5 | 0.00 | 0.00 | 0.00 | 70 | |
| 20260505005357 | 16 | 253 | 8.0 | 22.5 | 0.00 | 0.00 | 0.00 | 69 | |
| 20260505004550 | 16 | 262 | 16.1 | 22.5 | 0.00 | 0.00 | 0.00 | 67 | |
| 20260505004347 | 16 | 255 | 16.1 | 22.5 | 0.00 | 0.00 | 0.00 | 67 | |
| 20260505004146 | 16 | 206 | 4.8 | 20.9 | 0.00 | 0.00 | 0.00 | 67 | |
| 20260505003944 | 16 | 174 | 11.3 | 20.9 | 0.00 | 0.00 | 0.00 | 67 | |
| 20260505003742 | 16 | 264 | 12.9 | 25.7 | 0.00 | 0.00 | 0.00 | 66 | |
| 20260505003538 | 16 | 237 | 3.2 | 25.7 | 0.00 | 0.00 | 0.00 | 66 | |
| 20260505003339 | 16 | 157 | 11.3 | 25.7 | 0.00 | 0.00 | 0.00 | 66 | |
| 20260505003134 | 16 | 293 | 12.9 | 20.9 | 0.00 | 0.00 | 0.00 | 66 | |
| 20260505002934 | 16 | 277 | 11.3 | 20.9 | 0.00 | 0.00 | 0.00 | 65 | |
| 20260505002731 | 17 | 258 | 12.9 | 24.1 | 0.00 | 0.00 | 0.00 | 66 | |
| 20260505002530 | 17 | 255 | 3.2 | 24.1 | 0.00 | 0.00 | 0.00 | 65 | |
| 20260505002328 | 17 | 262 | 12.9 | 24.1 | 0.00 | 0.00 | 0.00 | 65 | |
| 20260505002127 | 16 | 250 | 14.5 | 22.5 | 0.00 | 0.00 | 0.00 | 64 | |
| 20260505001925 | 17 | 260 | 11.3 | 22.5 | 0.00 | 0.00 | 0.00 | 63 | |
| 20260505001519 | 17 | 244 | 14.5 | 22.5 | 0.00 | 0.00 | 0.00 | 62 | |
| 20260505001319 | 17 | 306 | 3.2 | 19.3 | 0.00 | 0.00 | 0.00 | 62 | |
| 20260505001117 | 17 | 261 | 12.9 | 19.3 | 0.00 | 0.00 | 0.00 | 63 | |
| 20260505000913 | 17 | 260 | 12.9 | 19.3 | 0.00 | 0.00 | 0.00 | 60 | |
| 20260505000510 | 18 | 322 | 1.6 | 16.1 | 0.00 | 0.00 | 0.00 | 59 | |
| 20260505000310 | 18 | 261 | 12.9 | 24.1 | 0.00 | 0.00 | 0.00 | 58 | |
| 20260505000107 | 18 | 254 | 8.0 | 24.1 | 0.00 | 0.00 | 0.00 | 59 | |
| 20260504235906 | 18 | 295 | 3.2 | 24.1 | 0.00 | 0.00 | 0.00 | 60 | |
| 20260504235704 | 17 | 264 | 14.5 | 25.7 | 0.00 | 0.00 | 0.00 | 60 | |
| 20260504235502 | 17 | 255 | 14.5 | 25.7 | 0.00 | 0.00 | 0.00 | 60 | |
| 20260504235058 | 17 | 262 | 17.7 | 25.7 | 0.00 | 0.00 | 0.00 | 58 | |
| 20260504234856 | 17 | 262 | 17.7 | 25.7 | 0.00 | 0.00 | 0.00 | 58 | |
| 20260504234654 | 18 | 271 | 3.2 | 19.3 | 0.00 | 0.00 | 0.00 | 60 | |
| 20260504234457 | 18 | 298 | 4.8 | 19.3 | 0.00 | 0.00 | 0.00 | 60 | |
| 20260504234250 | 17 | 267 | 9.7 | 24.1 | 0.00 | 0.00 | 0.00 | 60 | |
| 20260504234048 | 18 | 261 | 9.7 | 24.1 | 0.00 | 0.00 | 0.00 | 60 | |
| 20260504233847 | 17 | 286 | 4.8 | 24.1 | 0.00 | 0.00 | 0.00 | 59 | |
| 20260504233645 | 18 | 258 | 20.9 | 20.9 | 0.00 | 0.00 | 0.00 | 60 | |
| 20260504233443 | 18 | 202 | 1.6 | 20.9 | 0.00 | 0.00 | 0.00 | 61 | |
| 20260504233241 | 18 | 261 | 4.8 | 19.3 | 0.00 | 0.00 | 0.00 | 60 | |
| 20260504232837 | 17 | 265 | 11.3 | 19.3 | 0.00 | 0.00 | 0.00 | 59 | |
| 20260504232635 | 17 | 264 | 19.3 | 22.5 | 0.00 | 0.00 | 0.00 | 61 | |
| 20260504232231 | 17 | 257 | 19.3 | 30.6 | 0.00 | 0.00 | 0.00 | 59 | |
| 20260504232030 | 17 | 257 | 12.9 | 30.6 | 0.00 | 0.00 | 0.00 | 58 | |
| 20260504231828 | 17 | 261 | 12.9 | 30.6 | 0.00 | 0.00 | 0.00 | 58 | |
| 20260504231626 | 17 | 261 | 11.3 | 25.7 | 0.00 | 0.00 | 0.00 | 59 | |
| 20260504231422 | 17 | 264 | 19.3 | 25.7 | 0.00 | 0.00 | 0.00 | 58 | |
| 20260504231222 | 17 | 257 | 12.9 | 22.5 | 0.00 | 0.00 | 0.00 | 58 | |
| 20260504231020 | 17 | 243 | 17.7 | 22.5 | 0.00 | 0.00 | 0.00 | 58 | |
| 20260504230818 | 18 | 255 | 14.5 | 16.1 | 0.00 | 0.00 | 0.00 | 57 | |
| 20260504230614 | 18 | 161 | 3.2 | 16.1 | 0.00 | 0.00 | 0.00 | 58 | |
| 20260504230414 | 18 | 258 | 8.0 | 16.1 | 0.00 | 0.00 | 0.00 | 57 | |
| 20260504230212 | 18 | 217 | 1.6 | 27.4 | 0.00 | 0.00 | 0.00 | 57 | |
| 20260504230010 | 18 | 209 | 3.2 | 27.4 | 0.00 | 0.00 | 0.00 | 58 | |
| 20260504225808 | 18 | 250 | 11.3 | 27.4 | 0.00 | 0.00 | 0.00 | 57 | |
| 20260504225607 | 18 | 226 | 16.1 | 27.4 | 0.00 | 0.00 | 0.00 | 56 | |
| 20260504225405 | 18 | 260 | 6.4 | 27.4 | 0.00 | 0.00 | 0.00 | 56 | |
| 20260504225203 | 18 | 215 | 3.2 | 27.4 | 0.00 | 0.00 | 0.00 | 57 | |
| 20260504225001 | 18 | 354 | 3.2 | 27.4 | 0.00 | 0.00 | 0.00 | 57 | |
| 20260504224759 | 18 | 261 | 16.1 | 19.3 | 0.00 | 0.00 | 0.00 | 58 | |
| 20260504224558 | 18 | 260 | 4.8 | 19.3 | 0.00 | 0.00 | 0.00 | 57 | |
| 20260504224356 | 18 | 303 | 4.8 | 19.3 | 0.00 | 0.00 | 0.00 | 57 | |
| 20260504224154 | 18 | 246 | 11.3 | 14.5 | 0.00 | 0.00 | 0.00 | 57 | |
| 20260504223548 | 18 | 236 | 3.2 | 16.1 | 0.00 | 0.00 | 0.00 | 58 | |
| 20260504223346 | 18 | 299 | 4.8 | 16.1 | 0.00 | 0.00 | 0.00 | 56 | |
| 20260504223144 | 18 | 184 | 9.7 | 20.9 | 0.00 | 0.00 | 0.00 | 57 | |
| 20260504222940 | 19 | 254 | 3.2 | 20.9 | 0.00 | 0.00 | 0.00 | 54 | |
| 20260504222740 | 18 | 253 | 9.7 | 19.3 | 0.00 | 0.00 | 0.00 | 56 | |
| 20260504222538 | 19 | 278 | 8.0 | 19.3 | 0.00 | 0.00 | 0.00 | 56 | |
| 20260504222336 | 19 | 289 | 12.9 | 19.3 | 0.00 | 0.00 | 0.00 | 55 | |
| 20260504222134 | 19 | 229 | 6.4 | 29.0 | 0.00 | 0.00 | 0.00 | 54 | |
| 20260504221731 | 18 | 313 | 1.6 | 25.7 | 0.00 | 0.00 | 0.00 | 55 | |
| 20260504221529 | 18 | 247 | 14.5 | 25.7 | 0.00 | 0.00 | 0.00 | 56 | |
| 20260504221327 | 18 | 258 | 11.3 | 25.7 | 0.00 | 0.00 | 0.00 | 56 | |
| 20260504221127 | 18 | 157 | 4.8 | 25.7 | 0.00 | 0.00 | 0.00 | 55 | |
| 20260504220721 | 18 | 243 | 22.5 | 40.2 | 0.00 | 0.00 | 0.00 | 55 | |
| 20260504220519 | 18 | 261 | 6.4 | 40.2 | 0.00 | 0.00 | 0.00 | 53 | |
| 20260504220318 | 18 | 279 | 27.4 | 29.0 | 0.00 | 0.00 | 0.00 | 55 | |
| 20260504215914 | 18 | 250 | 22.5 | 29.0 | 0.00 | 0.00 | 0.00 | 53 | |
| 20260504215711 | 19 | 262 | 8.0 | 35.4 | 0.00 | 0.00 | 0.00 | 52 | |
| 20260504215509 | 18 | 281 | 9.7 | 35.4 | 0.00 | 0.00 | 0.00 | 53 | |
| 20260504215308 | 18 | 258 | 20.9 | 30.6 | 0.00 | 0.00 | 0.00 | 54 | |
| 20260504215106 | 18 | 240 | 8.0 | 30.6 | 0.00 | 0.00 | 0.00 | 56 | |
| 20260504214904 | 18 | 255 | 27.4 | 30.6 | 0.00 | 0.00 | 0.00 | 54 | |
| 20260504214702 | 18 | 254 | 30.6 | 35.4 | 0.00 | 0.00 | 0.00 | 54 | |
| 20260504214500 | 18 | 264 | 22.5 | 35.4 | 0.00 | 0.00 | 0.00 | 53 | |
| 20260504214258 | 18 | 262 | 22.5 | 35.4 | 0.00 | 0.00 | 0.00 | 53 | |
| 20260504214056 | 18 | 265 | 22.5 | 35.4 | 0.00 | 0.00 | 0.00 | 52 | |
| 20260504213855 | 18 | 222 | 16.1 | 35.4 | 0.00 | 0.00 | 0.00 | 56 | |
| 20260504213653 | 18 | 247 | 19.3 | 38.6 | 0.00 | 0.00 | 0.00 | 55 | |
| 20260504213249 | 18 | 243 | 20.9 | 33.8 | 0.00 | 0.00 | 0.00 | 55 | |
| 20260504213047 | 18 | 264 | 6.4 | 33.8 | 0.00 | 0.00 | 0.00 | 53 | |
| 20260504212845 | 18 | 250 | 14.5 | 33.8 | 0.00 | 0.00 | 0.00 | 53 | |
| 20260504212643 | 18 | 279 | 22.5 | 33.8 | 0.00 | 0.00 | 0.00 | 53 | |
| 20260504212441 | 18 | 267 | 29.0 | 33.8 | 0.00 | 0.00 | 0.00 | 52 | |
| 20260504212239 | 18 | 247 | 14.5 | 27.4 | 0.00 | 0.00 | 0.00 | 51 | |
| 20260504212038 | 18 | 257 | 22.5 | 27.4 | 0.00 | 0.00 | 0.00 | 51 | |
| 20260504211836 | 19 | 264 | 12.9 | 27.4 | 0.00 | 0.00 | 0.00 | 50 | |
| 20260504211432 | 18 | 247 | 20.9 | 33.8 | 0.00 | 0.00 | 0.00 | 50 | |
| 20260504211230 | 18 | 291 | 20.9 | 40.2 | 0.00 | 0.00 | 0.00 | 50 | |
| 20260504211028 | 19 | 248 | 29.0 | 40.2 | 0.00 | 0.00 | 0.00 | 52 | |
| 20260504210826 | 18 | 268 | 25.7 | 40.2 | 0.00 | 0.00 | 0.00 | 52 | |
| 20260504210624 | 18 | 258 | 20.9 | 33.8 | 0.00 | 0.00 | 0.00 | 50 | |
| 20260504210423 | 18 | 292 | 11.3 | 33.8 | 0.00 | 0.00 | 0.00 | 50 | |
| 20260504210221 | 18 | 247 | 19.3 | 37.0 | 0.00 | 0.00 | 0.00 | 51 | |
| 20260504210019 | 19 | 243 | 14.5 | 37.0 | 0.00 | 0.00 | 0.00 | 50 | |
| 20260504205817 | 18 | 246 | 22.5 | 33.8 | 0.00 | 0.00 | 0.00 | 50 | |
| 20260504205413 | 18 | 261 | 24.1 | 33.8 | 0.00 | 0.00 | 0.00 | 48 | |
| 20260504205009 | 19 | 254 | 16.1 | 35.4 | 0.00 | 0.00 | 0.00 | 49 | |
| 20260504204808 | 19 | 260 | 27.4 | 29.0 | 0.00 | 0.00 | 0.00 | 49 | |
| 20260504204606 | 19 | 272 | 14.5 | 29.0 | 0.00 | 0.00 | 0.00 | 48 | |
| 20260504204402 | 19 | 271 | 12.9 | 29.0 | 0.00 | 0.00 | 0.00 | 49 | |
| 20260504204203 | 19 | 254 | 22.5 | 32.2 | 0.00 | 0.00 | 0.00 | 51 | |
| 20260504203352 | 19 | 272 | 27.4 | 30.6 | 0.00 | 0.00 | 0.00 | 44 | |
| 20260504203152 | 19 | 255 | 20.9 | 32.2 | 0.00 | 0.00 | 0.00 | 45 | |
| 20260504202950 | 19 | 272 | 12.9 | 32.2 | 0.00 | 0.00 | 0.00 | 48 | |
| 20260504202748 | 19 | 194 | 1.6 | 30.6 | 0.00 | 0.00 | 0.00 | 49 | |
| 20260504202547 | 19 | 243 | 12.9 | 30.6 | 0.00 | 0.00 | 0.00 | 48 | |
| 20260504202345 | 19 | 254 | 20.9 | 30.6 | 0.00 | 0.00 | 0.00 | 48 | |
| 20260504202143 | 18 | 248 | 14.5 | 35.4 | 0.00 | 0.00 | 0.00 | 49 | |
| 20260504201941 | 18 | 281 | 14.5 | 35.4 | 0.00 | 0.00 | 0.00 | 48 | |
| 20260504201738 | 18 | 267 | 14.5 | 29.0 | 0.00 | 0.00 | 0.00 | 48 | |
| 20260504201540 | 18 | 284 | 17.7 | 29.0 | 0.00 | 0.00 | 0.00 | 46 | |
| 20260504201133 | 18 | 271 | 12.9 | 30.6 | 0.00 | 0.00 | 0.00 | 48 | |
| 20260504200931 | 18 | 260 | 16.1 | 30.6 | 0.00 | 0.00 | 0.00 | 51 | |
| 20260504200729 | 18 | 267 | 24.1 | 22.5 | 0.00 | 0.00 | 0.00 | 50 | |
| 20260504200527 | 19 | 262 | 20.9 | 22.5 | 0.00 | 0.00 | 0.00 | 48 | |
| 20260504200325 | 19 | 282 | 12.9 | 22.5 | 0.00 | 0.00 | 0.00 | 49 | |
| 20260504200123 | 18 | 267 | 17.7 | 33.8 | 0.00 | 0.00 | 0.00 | 50 | |
| 20260504195921 | 18 | 255 | 12.9 | 33.8 | 0.00 | 0.00 | 0.00 | 49 | |
| 20260504195720 | 18 | 255 | 17.7 | 25.7 | 0.00 | 0.00 | 0.00 | 50 | |
| 20260504195517 | 18 | 262 | 19.3 | 25.7 | 0.00 | 0.00 | 0.00 | 49 | |
| 20260504195316 | 19 | 264 | 19.3 | 27.4 | 0.00 | 0.00 | 0.00 | 50 |